QPF
0.00 0.00 0.00 0.00 0.00 0.00 0.00 0.00 0.00 0.00 0.00 0.00 0.00 0.00 0.00 0.04 0.03 0.00 0.00 0.05 0.04 0.06 0.03 0.01 0.00 0.01 0.00 0.00 0.00 0.01 0.01 0.00 0.00 0.00 0.00 0.00 0.00 0.00 0.00 0.00 0.00 0.00 0.00
0.00 0.00 0.00 0.00 0.00 0.00 0.00 0.00 0.00 0.00 0.00 0.00 0.00 0.00 0.00 0.00 0.00 0.00 0.00 0.01 0.04 0.05 0.04 0.04 0.05 0.04 0.01 0.00 0.00 0.00 0.08 0.04 0.03 0.01 0.00 0.00 0.00 0.00 0.00 0.00 0.00 0.00 0.00
0.00 0.00 0.00 0.00 0.00 0.00 0.00 0.00 0.00 0.00 0.00 0.00 0.00 0.00 0.00 0.00 0.00 0.00 0.00 0.00 0.01 0.02 0.04 0.04 0.03 0.04 0.05 0.02 0.03 0.02 0.08 0.11 0.08 0.03 0.02 0.00 0.00 0.00 0.00 0.00 0.00 0.00 0.00
0.00 0.00 0.00 0.00 0.00 0.00 0.00 0.00 0.00 0.00 0.00 0.00 0.00 0.00 0.00 0.00 0.00 0.00 0.00 0.00 0.00 0.00 0.00 0.03 0.07 0.07 0.05 0.03 0.02 0.03 0.02 0.07 0.09 0.07 0.04 0.03 0.01 0.00 0.00 0.01 0.01 0.00 0.00
0.00 0.00 0.00 0.00 0.00 0.00 0.00 0.00 0.00 0.00 0.00 0.00 0.00 0.00 0.00 0.00 0.00 0.00 0.00 0.00 0.00 0.00 0.00 0.00 0.00 0.01 0.03 0.05 0.06 0.07 0.06 0.07 0.07 0.07 0.08 0.08 0.06 0.03 0.01 0.01 0.02 0.02 0.01
0.00 0.00 0.00 0.00 0.00 0.00 0.00 0.00 0.00 0.00 0.00 0.00 0.00 0.00 0.00 0.00 0.00 0.00 0.00 0.00 0.00 0.00 0.00 0.01 0.01 0.01 0.01 0.01 0.04 0.07 0.08 0.08 0.10 0.11 0.09 0.10 0.11 0.09 0.06 0.03 0.03 0.03 0.01
0.00 0.00 0.00 0.00 0.00 0.00 0.00 0.00 0.00 0.00 0.00 0.00 0.00 0.00 0.00 0.00 0.00 0.00 0.00 0.00 0.00 0.00 0.00 0.01 0.02 0.02 0.01 0.01 0.01 0.01 0.02 0.08 0.11 0.13 0.11 0.09 0.09 0.10 0.08 0.06 0.04 0.03 0.02
0.00 0.00 0.00 0.00 0.00 0.00 0.00 0.00 0.00 0.00 0.00 0.00 0.00 0.00 0.00 0.00 0.00 0.00 0.00 0.00 0.00 0.00 0.00 0.00 0.00 0.00 0.01 0.00 0.00 0.00 0.01 0.02 0.07 0.12 0.16 0.14 0.10 0.10 0.09 0.08 0.07 0.03 0.02
0.00 0.00 0.00 0.00 0.00 0.00 0.00 0.00 0.00 0.00 0.00 0.00 0.00 0.00 0.00 0.00 0.00 0.00 0.00 0.00 0.00 0.00 0.00 0.00 0.00 0.00 0.00 0.00 0.00 0.01 0.01 0.02 0.03 0.05 0.11 0.14 0.10 0.09 0.10 0.07 0.06 0.04 0.03
0.00 0.00 0.00 0.00 0.00 0.00 0.00 0.00 0.00 0.00 0.00 0.00 0.00 0.00 0.00 0.00 0.00 0.00 0.00 0.00 0.00 0.00 0.00 0.00 0.00 0.00 0.00 0.00 0.00 0.00 0.01 0.01 0.01 0.01 0.04 0.05 0.05 0.07 0.08 0.06 0.04 0.03 0.02
0.00 0.00 0.00 0.00 0.00 0.00 0.00 0.00 0.00 0.00 0.00 0.00 0.00 0.00 0.00 0.00 0.00 0.00 0.00 0.00 0.00 0.00 0.00 0.00 0.00 0.00 0.00 0.00 0.00 0.00 0.00 0.00 0.00 0.00 0.00 0.00 0.00 0.01 0.01 0.02 0.02 0.02 0.03
0.00 0.00 0.00 0.00 0.00 0.00 0.00 0.00 0.00 0.00 0.00 0.00 0.00 0.00 0.00 0.00 0.00 0.00 0.00 0.00 0.00 0.00 0.00 0.00 0.00 0.00 0.00 0.00 0.00 0.00 0.00 0.00 0.00 0.00 0.00 0.00 0.00 0.00 0.00 0.00 0.01 0.01 0.01
0.00 0.00 0.00 0.00 0.00 0.00 0.00 0.00 0.00 0.00 0.00 0.00 0.00 0.00 0.00 0.00 0.00 0.00 0.00 0.00 0.00 0.00 0.00 0.00 0.00 0.00 0.00 0.00 0.00 0.00 0.00 0.00 0.00 0.00 0.00 0.00 0.00 0.00 0.00 0.00 0.00 0.00 0.00
0.00 0.00 0.00 0.00 0.00 0.00 0.00 0.00 0.00 0.00 0.00 0.00 0.00 0.00 0.00 0.00 0.00 0.00 0.00 0.00 0.00 0.00 0.00 0.00 0.00 0.00 0.00 0.00 0.00 0.00 0.00 0.00 0.00 0.00 0.00 0.00 0.00 0.00 0.00 0.00 0.00 0.00 0.00
0.00 0.00 0.00 0.00 0.00 0.00 0.00 0.00 0.00 0.00 0.00 0.00 0.00 0.00 0.00 0.00 0.00 0.00 0.00 0.00 0.00 0.00 0.00 0.00 0.00 0.00 0.00 0.00 0.00 0.00 0.00 0.00 0.00 0.00 0.00 0.00 0.00 0.00 0.00 0.00 0.00 0.00 0.00
0.00 0.00 0.00 0.00 0.00 0.00 0.00 0.00 0.00 0.00 0.00 0.00 0.00 0.00 0.00 0.00 0.00 0.00 0.00 0.00 0.00 0.00 0.00 0.00 0.00 0.00 0.00 0.00 0.00 0.00 0.00 0.00 0.00 0.00 0.00 0.00 0.00 0.00 0.00 0.00 0.00 0.00 0.00
0.00 0.00 0.00 0.00 0.00 0.00 0.00 0.00 0.00 0.00 0.00 0.00 0.00 0.00 0.00 0.00 0.00 0.00 0.00 0.00 0.00 0.00 0.00 0.00 0.00 0.00 0.00 0.00 0.00 0.00 0.00 0.00 0.00 0.00 0.00 0.00 0.00 0.00 0.00 0.00 0.00 0.00 0.00
0.00 0.00 0.00 0.00 0.00 0.00 0.00 0.00 0.00 0.00 0.00 0.00 0.00 0.00 0.00 0.00 0.00 0.00 0.00 0.00 0.00 0.00 0.00 0.00 0.00 0.00 0.00 0.00 0.00 0.00 0.00 0.00 0.00 0.00 0.00 0.00 0.00 0.00 0.00 0.00 0.00 0.00 0.00
0.00 0.00 0.00 0.00 0.00 0.00 0.00 0.00 0.00 0.00 0.00 0.00 0.00 0.00 0.00 0.00 0.00 0.00 0.00 0.00 0.00 0.00 0.00 0.00 0.00 0.00 0.00 0.00 0.00 0.00 0.00 0.00 0.00 0.00 0.00 0.00 0.00 0.00 0.00 0.00 0.00 0.00 0.00
0.00 0.00 0.00 0.00 0.00 0.00 0.00 0.00 0.00 0.00 0.00 0.00 0.00 0.00 0.00 0.00 0.00 0.00 0.00 0.00 0.00 0.00 0.00 0.00 0.00 0.00 0.00 0.00 0.00 0.00 0.00 0.00 0.00 0.00 0.00 0.00 0.00 0.00 0.00 0.00 0.00 0.00 0.00
0.00 0.00 0.00 0.00 0.00 0.00 0.00 0.00 0.00 0.00 0.00 0.00 0.00 0.00 0.00 0.00 0.00 0.00 0.00 0.00 0.00 0.00 0.00 0.00 0.00 0.00 0.00 0.00 0.00 0.00 0.00 0.00 0.00 0.00 0.00 0.00 0.00 0.00 0.00 0.00 0.00 0.00 0.00
0.00 0.00 0.00 0.00 0.00 0.00 0.00 0.00 0.00 0.00 0.00 0.00 0.00 0.00 0.00 0.00 0.00 0.00 0.00 0.00 0.00 0.00 0.00 0.00 0.00 0.00 0.00 0.00 0.00 0.00 0.00 0.00 0.00 0.00 0.00 0.00 0.00 0.00 0.00 0.00 0.00 0.00 0.00
0.00 0.00 0.00 0.00 0.00 0.00 0.00 0.00 0.00 0.00 0.00 0.00 0.00 0.00 0.00 0.00 0.00 0.00 0.00 0.00 0.00 0.00 0.00 0.00 0.00 0.00 0.00 0.00 0.00 0.00 0.00 0.00 0.00 0.00 0.00 0.00 0.00 0.00 0.00 0.00 0.00 0.00 0.00
0.00 0.00 0.00 0.00 0.00 0.00 0.00 0.00 0.00 0.00 0.00 0.00 0.00 0.00 0.00 0.00 0.00 0.00 0.00 0.00 0.00 0.00 0.00 0.00 0.00 0.00 0.00 0.00 0.00 0.00 0.00 0.00 0.00 0.00 0.00 0.00 0.00 0.00 0.00 0.00 0.00 0.00 0.00
0.00 0.00 0.00 0.00 0.00 0.00 0.00 0.00 0.00 0.00 0.00 0.00 0.00 0.00 0.00 0.00 0.00 0.00 0.00 0.00 0.00 0.00 0.00 0.00 0.00 0.00 0.00 0.00 0.00 0.00 0.00 0.00 0.00 0.00 0.00 0.00 0.00 0.00 0.00 0.00 0.00 0.00 0.00
0.00 0.00 0.00 0.00 0.00 0.00 0.00 0.00 0.00 0.00 0.00 0.00 0.00 0.00 0.00 0.00 0.00 0.00 0.00 0.00 0.00 0.00 0.00 0.00 0.00 0.00 0.00 0.00 0.00 0.00 0.00 0.00 0.00 0.00 0.00 0.00 0.00 0.00 0.00 0.00 0.00 0.00 0.00
MSLP
1013.54 1013.71 1013.92 1014.11 1014.21 1014.52 1014.69 1014.80 1014.76 1014.95 1015.14 1015.35 1015.50 1015.70 1015.74 1015.68 1015.64 1015.38 1015.24 1015.59 1015.81 1016.14 1016.24 1016.22 1016.50 1016.68 1017.18 1017.41 1017.73 1018.11 1018.38 1018.68 1018.75 1019.65 1020.15 1020.21 1020.08 1020.04 1019.84 1019.80 1020.05 1020.15 1020.09
1014.18 1014.33 1014.36 1014.52 1014.90 1015.15 1015.18 1015.21 1015.24 1015.12 1015.04 1015.05 1015.31 1015.32 1015.28 1015.25 1015.18 1015.00 1015.11 1015.17 1015.39 1015.83 1016.04 1016.34 1016.24 1016.44 1016.78 1017.02 1017.21 1017.58 1018.10 1018.26 1018.63 1019.41 1020.25 1020.41 1020.28 1019.75 1019.48 1019.54 1019.58 1019.70 1019.81
1014.68 1014.94 1014.98 1015.17 1015.23 1015.41 1015.51 1015.60 1015.43 1015.24 1015.16 1015.19 1015.12 1015.14 1015.17 1015.29 1015.33 1015.32 1015.34 1015.21 1015.15 1015.17 1015.36 1015.70 1015.88 1016.14 1016.29 1016.48 1016.70 1017.01 1017.39 1017.80 1018.42 1018.17 1018.88 1020.13 1019.82 1019.56 1018.95 1018.81 1018.83 1019.03 1019.34
1014.99 1015.16 1015.30 1015.50 1015.67 1015.76 1015.76 1015.76 1015.65 1015.48 1015.28 1015.20 1015.28 1015.48 1015.61 1015.74 1015.47 1015.38 1015.19 1014.98 1014.66 1014.68 1014.80 1015.07 1015.29 1015.67 1015.98 1016.23 1016.17 1016.26 1016.65 1017.12 1017.65 1018.28 1018.11 1018.07 1018.46 1019.10 1019.25 1018.82 1018.52 1018.67 1019.00
1015.07 1015.33 1015.40 1015.58 1015.87 1016.03 1016.13 1016.07 1015.85 1015.70 1015.53 1015.31 1015.24 1015.47 1015.58 1015.74 1015.54 1015.35 1015.22 1014.96 1014.69 1014.33 1014.26 1014.39 1014.64 1015.10 1015.36 1015.57 1015.80 1015.96 1016.17 1016.31 1016.48 1016.83 1017.13 1017.48 1017.88 1018.37 1018.86 1018.90 1018.77 1018.63 1018.49
1015.47 1015.56 1015.68 1015.97 1016.32 1016.37 1016.43 1016.35 1016.21 1015.98 1015.80 1015.67 1015.51 1015.53 1015.56 1015.60 1015.67 1015.51 1015.40 1015.08 1014.72 1014.52 1014.37 1014.10 1014.23 1014.40 1014.75 1014.90 1015.11 1015.32 1015.71 1015.98 1016.04 1016.02 1016.34 1016.41 1016.80 1017.28 1018.21 1018.54 1018.68 1018.86 1018.90
1015.62 1015.88 1016.09 1016.29 1016.53 1016.74 1016.78 1016.69 1016.55 1016.42 1016.21 1016.02 1015.89 1015.78 1015.73 1015.67 1015.82 1015.80 1015.71 1015.50 1015.21 1015.00 1014.95 1014.63 1014.43 1014.33 1014.32 1014.39 1014.56 1014.77 1015.03 1015.32 1015.43 1015.52 1015.74 1015.95 1016.11 1015.91 1016.06 1017.36 1018.25 1018.47 1018.99
1015.61 1015.93 1016.17 1016.48 1016.70 1016.90 1016.93 1016.88 1016.86 1016.80 1016.60 1016.45 1016.35 1016.18 1016.05 1016.06 1016.10 1016.07 1015.98 1016.03 1015.96 1015.75 1015.48 1015.15 1014.81 1014.43 1014.30 1014.35 1014.43 1014.52 1014.82 1014.97 1014.98 1014.93 1015.25 1015.46 1015.58 1015.86 1015.84 1015.84 1016.36 1018.29 1018.78
1015.69 1015.96 1016.24 1016.51 1016.79 1017.04 1017.13 1017.19 1017.20 1017.16 1017.02 1016.87 1016.72 1016.73 1016.64 1016.52 1016.56 1016.51 1016.42 1016.42 1016.26 1016.04 1015.85 1015.60 1015.37 1015.00 1014.74 1014.70 1014.76 1014.62 1014.71 1014.76 1014.71 1014.59 1014.64 1014.82 1015.08 1015.29 1015.60 1016.17 1014.40 1015.48 1016.70
1015.80 1016.09 1016.38 1016.67 1016.91 1017.08 1017.28 1017.41 1017.50 1017.51 1017.43 1017.30 1017.29 1017.39 1017.25 1017.21 1017.21 1017.04 1017.06 1016.92 1016.67 1016.37 1016.17 1015.99 1015.86 1015.68 1015.36 1015.13 1015.04 1015.00 1014.83 1014.89 1014.88 1014.95 1014.84 1015.02 1015.46 1015.79 1015.83 1015.76 1016.18 1016.03 1016.92
1015.96 1016.30 1016.55 1016.78 1016.97 1017.23 1017.48 1017.73 1017.83 1017.88 1017.90 1017.93 1017.94 1017.97 1017.96 1017.91 1017.87 1017.75 1017.68 1017.49 1017.17 1016.90 1016.77 1016.50 1016.25 1016.20 1016.04 1015.77 1015.60 1015.48 1015.38 1015.33 1015.39 1015.63 1015.76 1015.94 1016.21 1016.53 1016.70 1016.73 1016.65 1016.92 1017.24
1015.92 1016.32 1016.55 1016.90 1017.32 1017.64 1017.84 1018.06 1018.24 1018.34 1018.38 1018.41 1018.48 1018.62 1018.64 1018.67 1018.55 1018.51 1018.31 1017.99 1017.72 1017.48 1017.31 1017.12 1016.86 1016.80 1016.48 1016.43 1016.40 1016.45 1016.61 1016.46 1016.38 1016.58 1016.66 1016.87 1016.98 1017.09 1017.15 1017.15 1017.19 1017.39 1017.54
1015.91 1016.39 1016.73 1017.12 1017.54 1017.94 1018.14 1018.38 1018.62 1018.77 1018.76 1018.84 1018.99 1019.23 1019.33 1019.34 1019.25 1019.21 1018.79 1018.55 1018.26 1017.94 1017.74 1017.51 1017.44 1017.48 1017.32 1017.23 1017.16 1017.09 1017.25 1017.48 1017.57 1017.46 1017.56 1017.64 1017.38 1017.72 1017.78 1017.74 1017.87 1018.22 1018.25
1015.88 1016.44 1016.93 1017.35 1017.76 1018.08 1018.32 1018.69 1018.99 1019.04 1019.08 1019.21 1019.51 1019.83 1019.89 1019.77 1019.72 1019.45 1019.17 1018.94 1018.87 1018.38 1018.23 1018.23 1018.33 1018.24 1018.06 1017.99 1018.02 1017.89 1017.89 1018.08 1018.30 1018.28 1018.25 1018.32 1018.28 1018.55 1018.58 1018.85 1018.93 1018.80 1019.06
1015.99 1016.42 1017.05 1017.60 1018.00 1018.32 1018.64 1018.93 1019.16 1019.24 1019.37 1019.69 1019.94 1020.11 1020.04 1019.85 1019.81 1019.67 1019.76 1019.52 1019.43 1019.40 1019.11 1019.12 1019.07 1018.87 1018.68 1018.69 1018.71 1018.77 1018.91 1019.02 1019.10 1019.15 1018.90 1018.92 1019.10 1019.45 1019.53 1019.65 1019.78 1019.64 1019.67
1016.00 1016.57 1017.12 1017.63 1018.19 1018.55 1018.91 1019.21 1019.48 1019.62 1019.76 1020.03 1020.17 1020.22 1020.06 1020.09 1020.22 1020.21 1020.27 1020.38 1020.45 1020.21 1019.94 1019.90 1019.80 1019.48 1019.40 1019.49 1019.43 1019.56 1019.73 1019.92 1020.00 1020.07 1020.07 1020.00 1019.97 1020.02 1020.01 1020.18 1020.36 1020.40 1020.17
1016.19 1016.68 1017.23 1017.73 1018.27 1018.72 1019.10 1019.44 1019.71 1019.71 1019.85 1019.98 1020.19 1020.25 1020.58 1020.64 1020.73 1020.82 1021.03 1021.14 1021.06 1020.93 1020.82 1020.95 1020.62 1020.34 1020.22 1020.34 1020.39 1020.55 1020.77 1020.86 1020.93 1020.97 1020.94 1020.88 1020.81 1020.87 1020.92 1021.09 1020.79 1020.65 1020.32
1016.20 1016.87 1017.43 1017.92 1018.39 1018.78 1019.16 1019.45 1019.68 1019.75 1019.98 1020.16 1020.31 1020.46 1020.81 1021.06 1021.33 1021.43 1021.64 1021.81 1021.65 1021.57 1021.78 1021.70 1021.50 1021.30 1021.17 1021.11 1021.06 1021.23 1021.36 1021.51 1021.65 1021.52 1021.40 1021.32 1021.23 1021.02 1021.08 1021.12 1020.95 1020.87 1020.78
1016.27 1016.97 1017.56 1018.06 1018.50 1018.80 1019.17 1019.46 1019.73 1020.02 1020.19 1020.41 1020.50 1020.60 1021.08 1021.39 1021.91 1021.84 1022.20 1022.32 1022.15 1022.27 1022.30 1022.32 1022.29 1022.08 1021.69 1021.47 1021.49 1021.74 1021.88 1021.94 1021.85 1021.69 1021.55 1021.42 1021.34 1021.18 1021.19 1021.27 1021.24 1021.26 1021.20
1016.54 1017.18 1017.75 1018.07 1018.39 1018.71 1019.20 1019.60 1019.83 1020.13 1020.33 1020.60 1020.72 1020.85 1021.20 1021.79 1022.17 1022.32 1022.67 1022.71 1022.56 1022.57 1022.73 1022.84 1022.71 1022.30 1022.04 1021.69 1021.63 1021.88 1021.93 1022.12 1022.06 1021.99 1021.83 1021.61 1021.54 1021.52 1021.52 1021.68 1021.80 1021.77 1021.74
1016.61 1017.19 1017.61 1018.16 1018.43 1018.76 1019.09 1019.71 1020.14 1020.37 1020.51 1020.66 1020.74 1021.07 1021.61 1022.10 1022.42 1022.69 1022.78 1022.79 1022.90 1023.03 1023.13 1023.13 1023.03 1022.60 1022.41 1022.07 1021.85 1021.82 1021.97 1022.04 1022.10 1022.18 1022.22 1022.04 1021.83 1021.75 1021.68 1021.62 1021.83 1021.84 1021.72
1016.73 1017.18 1017.79 1018.25 1018.60 1018.80 1019.02 1019.84 1020.40 1020.58 1020.63 1020.62 1021.03 1021.52 1021.91 1022.17 1022.54 1022.74 1022.80 1022.89 1023.06 1023.27 1023.41 1023.40 1023.27 1022.95 1022.80 1022.36 1022.06 1021.92 1021.90 1021.98 1022.21 1022.41 1022.33 1022.14 1021.89 1021.80 1021.72 1021.69 1021.71 1021.71 1021.80
1016.61 1017.04 1017.56 1018.15 1018.61 1018.92 1019.24 1019.86 1020.24 1020.48 1020.66 1020.98 1021.36 1021.66 1021.92 1022.11 1022.31 1022.54 1022.66 1022.84 1022.98 1023.20 1023.32 1023.35 1023.31 1023.26 1023.03 1022.75 1022.26 1022.09 1021.88 1021.94 1022.14 1022.24 1022.05 1021.91 1021.82 1021.79 1021.79 1021.71 1021.61 1021.69 1021.82
1016.43 1016.89 1017.42 1018.00 1018.49 1018.73 1019.09 1019.59 1020.14 1020.37 1020.63 1021.07 1021.41 1021.65 1021.93 1022.13 1022.21 1022.19 1022.27 1022.60 1022.76 1022.91 1023.05 1023.18 1023.24 1023.29 1023.26 1022.95 1022.72 1022.63 1022.51 1022.43 1022.35 1022.29 1022.19 1022.02 1021.88 1021.79 1021.71 1021.66 1021.66 1021.64 1021.67
1016.06 1016.54 1016.95 1017.34 1017.85 1018.42 1018.84 1019.29 1019.85 1020.15 1020.50 1020.79 1021.09 1021.49 1021.80 1022.07 1022.25 1022.30 1022.30 1022.49 1022.53 1022.54 1022.73 1022.95 1022.96 1023.04 1023.01 1022.78 1022.53 1022.51 1022.51 1022.48 1022.41 1022.32 1022.39 1022.33 1022.24 1022.21 1022.05 1021.89 1021.77 1021.67 1021.58
1015.49 1016.02 1016.41 1016.83 1017.51 1018.00 1018.44 1018.95 1019.38 1019.73 1020.29 1020.68 1020.89 1021.19 1021.64 1021.93 1022.06 1022.23 1022.45 1022.42 1022.42 1022.37 1022.39 1022.47 1022.60 1022.67 1022.46 1022.41 1022.42 1022.45 1022.48 1022.44 1022.31 1022.52 1022.73 1022.72 1022.60 1022.44 1022.31 1022.18 1022.01 1021.78 1021.60
Thickness
5675 5678 5682 5686 5690 5691 5692 5690 5692 5695 5697 5695 5692 5690 5691 5691 5690 5693 5693 5688 5685 5682 5682 5681 5677 5673 5668 5664 5660 5656 5652 5648 5644 5635 5630 5627 5627 5627 5628 5627 5625 5625 5624
5660 5667 5675 5678 5678 5677 5680 5682 5682 5683 5685 5687 5687 5690 5690 5690 5689 5688 5685 5682 5681 5677 5674 5671 5671 5667 5662 5658 5655 5650 5645 5642 5635 5625 5615 5613 5614 5620 5619 5617 5617 5616 5615
5649 5654 5661 5665 5667 5668 5670 5672 5674 5677 5678 5679 5680 5679 5680 5682 5683 5682 5678 5676 5673 5672 5670 5666 5663 5660 5656 5653 5649 5645 5639 5635 5627 5626 5615 5598 5605 5605 5612 5614 5612 5610 5606
5642 5648 5653 5655 5657 5659 5662 5663 5665 5668 5671 5672 5671 5670 5667 5665 5670 5672 5673 5673 5671 5668 5664 5660 5658 5654 5649 5645 5643 5640 5634 5628 5622 5611 5613 5609 5604 5596 5598 5599 5602 5600 5596
5635 5639 5644 5647 5648 5650 5651 5652 5655 5658 5660 5663 5664 5662 5661 5659 5660 5661 5662 5664 5663 5662 5660 5656 5652 5648 5645 5641 5636 5630 5625 5621 5616 5610 5604 5598 5592 5587 5583 5583 5585 5585 5586
5626 5630 5634 5635 5634 5637 5639 5642 5645 5648 5650 5651 5653 5654 5654 5653 5652 5652 5652 5652 5654 5654 5652 5651 5647 5642 5638 5635 5630 5624 5617 5611 5607 5603 5597 5592 5586 5583 5570 5569 5569 5568 5567
5618 5620 5623 5624 5626 5626 5627 5632 5633 5636 5638 5640 5642 5643 5644 5644 5643 5641 5640 5641 5641 5640 5638 5639 5638 5634 5631 5628 5623 5617 5610 5603 5598 5592 5585 5580 5575 5576 5574 5563 5556 5556 5552
5611 5613 5615 5615 5617 5617 5618 5621 5622 5624 5626 5628 5630 5631 5632 5632 5631 5630 5629 5626 5625 5624 5625 5625 5625 5625 5620 5617 5613 5607 5599 5592 5585 5580 5570 5563 5561 5556 5555 5560 5559 5537 5536
5603 5606 5607 5607 5608 5607 5609 5610 5611 5612 5614 5616 5618 5618 5619 5619 5618 5617 5616 5614 5614 5615 5613 5612 5611 5610 5609 5605 5599 5595 5586 5578 5572 5564 5556 5548 5543 5540 5538 5540 5546 5551 5541
5595 5597 5596 5597 5597 5598 5598 5598 5600 5600 5602 5604 5604 5603 5605 5604 5603 5604 5602 5602 5602 5603 5601 5598 5597 5594 5593 5591 5585 5579 5572 5563 5553 5542 5536 5528 5521 5518 5520 5525 5522 5525 5520
5585 5585 5586 5588 5588 5586 5586 5586 5587 5588 5589 5590 5590 5589 5590 5590 5590 5590 5589 5588 5589 5589 5586 5585 5583 5580 5578 5575 5570 5563 5555 5546 5535 5521 5510 5503 5500 5498 5498 5499 5503 5506 5505
5577 5577 5578 5578 5576 5574 5574 5575 5575 5576 5577 5577 5576 5575 5575 5575 5575 5575 5575 5576 5575 5575 5573 5571 5570 5566 5565 5559 5553 5545 5535 5527 5516 5504 5492 5485 5482 5481 5482 5484 5486 5486 5487
5571 5569 5569 5568 5565 5564 5565 5564 5564 5564 5565 5564 5564 5562 5561 5561 5561 5560 5563 5563 5563 5563 5561 5560 5557 5552 5549 5544 5537 5530 5521 5511 5500 5492 5481 5473 5471 5469 5469 5470 5468 5467 5469
5565 5561 5561 5559 5557 5557 5557 5555 5553 5554 5554 5554 5552 5549 5549 5549 5548 5550 5552 5552 5551 5551 5550 5547 5542 5538 5534 5529 5523 5518 5510 5501 5491 5483 5475 5466 5461 5456 5455 5451 5450 5453 5454
5558 5556 5553 5551 5549 5548 5547 5545 5545 5546 5544 5542 5540 5539 5539 5541 5541 5541 5539 5539 5538 5536 5535 5532 5528 5525 5522 5516 5510 5503 5496 5489 5481 5474 5468 5458 5450 5445 5443 5437 5436 5440 5441
5554 5549 5547 5545 5540 5539 5538 5537 5535 5535 5534 5531 5531 5530 5532 5531 5529 5528 5527 5525 5522 5521 5521 5518 5514 5513 5509 5503 5498 5491 5484 5477 5470 5463 5457 5450 5445 5439 5436 5432 5431 5430 5433
5545 5543 5541 5537 5533 5532 5530 5527 5525 5526 5526 5526 5523 5523 5520 5518 5516 5515 5512 5510 5509 5508 5506 5501 5500 5499 5497 5490 5484 5477 5470 5464 5459 5453 5448 5443 5437 5432 5428 5424 5425 5427 5431
5541 5536 5532 5529 5528 5525 5523 5521 5519 5520 5518 5516 5514 5513 5510 5507 5504 5502 5500 5497 5497 5495 5490 5488 5487 5485 5481 5476 5472 5465 5459 5453 5448 5444 5441 5436 5433 5431 5427 5424 5424 5423 5422
5533 5528 5525 5523 5521 5520 5517 5515 5513 5512 5510 5507 5506 5506 5501 5497 5491 5492 5487 5485 5485 5482 5480 5476 5472 5469 5468 5466 5462 5454 5449 5444 5442 5440 5437 5434 5431 5430 5427 5423 5421 5419 5416
5525 5520 5518 5518 5517 5516 5512 5508 5509 5505 5503 5500 5498 5497 5493 5487 5483 5481 5476 5475 5475 5474 5469 5464 5462 5463 5458 5457 5453 5447 5443 5439 5436 5433 5431 5431 5427 5424 5421 5416 5412 5409 5407
5520 5516 5515 5512 5512 5510 5507 5503 5500 5498 5496 5494 5493 5489 5483 5478 5474 5471 5469 5466 5463 5461 5457 5456 5453 5453 5449 5447 5445 5443 5437 5434 5431 5427 5423 5421 5420 5417 5414 5411 5405 5402 5400
5514 5512 5508 5506 5503 5503 5502 5496 5492 5490 5489 5489 5485 5479 5474 5471 5467 5464 5463 5461 5458 5455 5452 5448 5445 5443 5440 5440 5439 5437 5434 5431 5425 5420 5417 5415 5414 5410 5407 5403 5399 5396 5391
5510 5508 5504 5501 5498 5497 5496 5490 5488 5485 5482 5480 5476 5472 5469 5466 5463 5461 5459 5456 5453 5449 5446 5442 5438 5435 5433 5431 5432 5429 5428 5425 5419 5415 5413 5411 5407 5403 5398 5395 5392 5387 5380
5504 5503 5501 5498 5493 5493 5491 5486 5482 5479 5477 5475 5469 5466 5463 5461 5459 5458 5456 5452 5448 5445 5441 5437 5433 5428 5425 5424 5422 5420 5417 5415 5411 5408 5404 5403 5400 5396 5392 5386 5381 5377 5371
5502 5500 5498 5497 5493 5489 5486 5482 5478 5476 5474 5470 5466 5462 5458 5455 5453 5452 5450 5447 5444 5441 5436 5432 5429 5424 5420 5419 5418 5415 5411 5407 5404 5401 5396 5392 5388 5383 5379 5375 5371 5366 5362
5500 5498 5499 5494 5489 5486 5483 5479 5476 5473 5468 5463 5460 5457 5453 5450 5448 5445 5442 5441 5438 5436 5433 5429 5424 5420 5418 5415 5412 5409 5405 5401 5398 5392 5385 5380 5375 5372 5369 5365 5360 5355 5350